www.srh.weather.gov   
NOAA logo - Click to go to the NOAA homepage   NWS logo
Hourly Weather Roundup
Enter Your "City, ST" or zip code   
Current Version              Previous Version:    01  02  03  04  05  06  07  08  09  10  11  12  13  14  15  16  17  18  19  20  21  22  23  24  25  26  27  28  29  30  
   31  32  33  34  35  36  37  38  39  40  41  42  43  44  45  46  47  48  49  50  51  52  53  54  55  56  57  58  59  60  
[Printable]
010
NZUS43 KILX 302010
HWRILX

AREA WEATHER ROUNDUP
NATIONAL WEATHER SERVICE, LINCOLN IL
300 PM CDT SAT AUG 30 2014


CITY           SKY/WX    TMP DP  RH WIND       PRES   REMARKS
BLOOMINGTON    PTSUNNY   77  71  81 SW9       29.91F
CHAMPAIGN      CLOUDY    81  72  74 S15       29.93F HX  85
DECATUR        PTSUNNY   82  72  71 S15G24    29.92F HX  87
FLORA          CLOUDY    79  70  74 S13       29.97F HX  82
GALESBURG        N/A    N/A N/A N/A MISG        N/A
JACKSONVILLE   PTSUNNY   83  74  73 S9        29.90F HX  90
LACON          SUNNY     83  68  60 W13G18    29.87F HX  86
LAWRENCEVILLE  CLOUDY    79  73  82 SW12      29.98F HX  82
LITCHFIELD     CLOUDY    80  73  78 S13       29.93F HX  84
$$


CITY           SKY/WX    TMP DP  RH WIND       PRES   REMARKS
LINCOLN        PTSUNNY   85  71  64 SW6       29.86F HX  90
MACOMB         PTSUNNY   81  70  69 W7        29.91F HX  84
MATTOON        CLOUDY    80  71  74 S10       29.94F HX  84
MT CARMEL AP   CLOUDY    81  73  78 S12       29.98F HX  85
OLNEY-NOBLE AP CLOUDY    77  70  78 S8        29.98S
PARIS          CLOUDY    83  73  70 SW10G20   29.95F HX  88
PEORIA         MOSUNNY   85  70  60 W9        29.88F HX  89
PONTIAC        LGT RAIN  81  72  74 S9G16     29.88F HX  84
RANTOUL        PTSUNNY   84  70  61 S13G18    29.92F HX  89
ROBINSON       CLOUDY    80  74  83 S10       29.98F HX  84
SPRINGFIELD    PTSUNNY   84  71  65 SW10      29.90F HX  89
TAYLORVILLE    PTSUNNY   81  72  74 S13       29.92F HX  84
$$

...REGIONAL REPORTS...


CITY           SKY/WX    TMP DP  RH WIND       PRES   REMARKS
CHICAGO O`HARE PTSUNNY   81  64  56 W20G31    29.84F HX  82
KANKAKEE       LGT RAIN  78  74  85 SW9G21    29.89S HX  81
MOLINE         PTSUNNY   80  67  64 W9        29.87F HX  82
MOUNT VERNON   CLOUDY    79  70  73 S14       29.98S HX  81
PITTSFIELD     PTSUNNY   83  72  67 S5        29.91S HX  88
QUINCY         MOSUNNY   85  71  63 W12       29.89F HX  90
ROCKFORD       PTSUNNY   80  67  64 W17G23    29.86S HX  82
$$


CITY           SKY/WX    TMP DP  RH WIND       PRES   REMARKS
BURLINGTON     MOSUNNY   82  69  64 W7        29.89F HX  85
CEDAR RAPIDS   MOSUNNY   78  68  71 SW10      29.88F HX  80
DES MOINES     MOSUNNY   83  68  60 W9        29.88F HX  86
KIRKSVILLE     SUNNY     84  67  56 W6        29.92F HX  86
OTTUMWA        PTSUNNY   78  67  68 VRB5      29.90F HX  80
ST LOUIS       PTSUNNY   87  72  60 S6        29.92F HX  93
$$


CITY           SKY/WX    TMP DP  RH WIND       PRES   REMARKS
TERRE HAUTE    CLOUDY    79  70  74 S16G24    29.97F HX  82
EVANSVILLE     LGT RAIN  76  73  91 S6        30.01F FOG
INDIANAPOLIS   LGT RAIN  78  69  73 S15       29.97F HX  80
LAFAYETTE      PTSUNNY   81  70  69 SW8G20    29.92F HX  84
MADISON        LGT RAIN  77  68  73 NW9G18    29.81R
MILWAUKEE      PTSUNNY   76  66  71 SW20G26   29.80S
$$





National Weather Service
Disclaimer
Last Modified: August 31, 2005
Privacy Policy